| time (UTC) | temp F | wind direction | speed MPH | gust MPH | rain 1hr in | rain 24hr in | rain mn in | humidity % | barometer mb |
| 20260503183048 | 72 | 22 | 2.0 | 8.0 | 0.00 | 0.00 | 0.00 | 55 | 1013.3 |
| 20260503181548 | 70 | 222 | 3.0 | 7.0 | 0.00 | 0.00 | 0.00 | 58 | 1013.4 |
| 20260503180047 | 68 | 236 | 4.0 | 9.0 | 0.00 | 0.00 | 0.00 | 63 | 1013.6 |
| 20260503174601 | 68 | 236 | 4.0 | 10.0 | 0.00 | 0.00 | 0.00 | 65 | 1013.6 |
| 20260503173046 | 68 | 249 | 4.0 | 9.0 | 0.00 | 0.00 | 0.00 | 63 | 1013.7 |
| 20260503171541 | 68 | 215 | 3.0 | 9.0 | 0.00 | 0.00 | 0.00 | 60 | 1013.7 |
| 20260503081547 | 58 | 42 | 2.0 | 6.0 | 0.00 | 0.00 | 0.00 | 81 | 1014.6 |
| 20260503071547 | 59 | 91 | 1.0 | 6.0 | 0.00 | 0.00 | 0.00 | 81 | 1014.6 |
| 20260503054546 | 62 | 0 | 1.0 | 5.0 | 0.00 | 0.00 | 0.00 | 77 | 1014.3 |
| 20260503053043 | 62 | 130 | 1.0 | 3.0 | 0.00 | 0.00 | 0.00 | 76 | 1014.3 |
| 20260503051549 | 62 | 109 | 1.0 | 2.0 | 0.00 | 0.00 | 0.00 | 74 | 1014.3 |
| 20260503050049 | 63 | 80 | 1.0 | 4.0 | 0.00 | 0.00 | 0.00 | 72 | 1014.3 |
| 20260503044552 | 65 | 186 | 1.0 | 2.0 | 0.00 | 0.00 | 0.00 | 67 | 1014.1 |
| 20260503043047 | 66 | 256 | 1.0 | 2.0 | 0.00 | 0.00 | 0.00 | 64 | 1014.1 |
| 20260503041538 | 67 | 247 | 2.0 | 3.0 | 0.00 | 0.00 | 0.00 | 63 | 1014.0 |
| 20260503040043 | 68 | 208 | 2.0 | 4.0 | 0.00 | 0.00 | 0.00 | 61 | 1013.7 |
| 20260503034558 | 69 | 256 | 1.0 | 3.0 | 0.00 | 0.00 | 0.00 | 60 | 1013.4 |
| 20260503033051 | 70 | 220 | 1.0 | 3.0 | 0.00 | 0.00 | 0.00 | 59 | 1013.0 |
| 20260503031552 | 71 | 215 | 1.0 | 3.0 | 0.00 | 0.00 | 0.00 | 56 | 1012.9 |
| 20260503030046 | 72 | 201 | 1.0 | 3.0 | 0.00 | 0.00 | 0.00 | 55 | 1012.8 |
| 20260503024550 | 72 | 219 | 1.0 | 6.0 | 0.00 | 0.00 | 0.00 | 55 | 1012.8 |
| 20260503023041 | 72 | 210 | 4.0 | 8.0 | 0.00 | 0.00 | 0.00 | 54 | 1012.7 |
| 20260503021548 | 73 | 201 | 4.0 | 8.0 | 0.00 | 0.00 | 0.00 | 53 | 1012.8 |
| 20260503020048 | 73 | 230 | 6.0 | 11.0 | 0.00 | 0.00 | 0.00 | 53 | 1012.7 |
| 20260503014600 | 73 | 254 | 6.0 | 10.0 | 0.00 | 0.00 | 0.00 | 53 | 1012.6 |
| 20260503013045 | 74 | 215 | 7.0 | 11.0 | 0.00 | 0.00 | 0.00 | 54 | 1012.5 |
| 20260503011548 | 74 | 244 | 5.0 | 11.0 | 0.00 | 0.00 | 0.00 | 54 | 1012.5 |
| 20260503010051 | 75 | 193 | 3.0 | 9.0 | 0.00 | 0.00 | 0.00 | 53 | 1012.7 |
| 20260503004548 | 75 | 235 | 4.0 | 9.0 | 0.00 | 0.00 | 0.00 | 54 | 1012.8 |
| 20260503003053 | 74 | 236 | 6.0 | 12.0 | 0.00 | 0.00 | 0.00 | 57 | 1013.0 |
| 20260503001606 | 75 | 244 | 5.0 | 11.0 | 0.00 | 0.00 | 0.00 | 55 | 1013.1 |
| 20260503000049 | 73 | 186 | 7.0 | 12.0 | 0.00 | 0.00 | 0.00 | 56 | 1013.1 |
| 20260502234549 | 73 | 193 | 7.0 | 12.0 | 0.00 | 0.00 | 0.00 | 57 | 1013.1 |
| 20260502233042 | 73 | 262 | 7.0 | 14.0 | 0.00 | 0.00 | 0.00 | 57 | 1013.3 |
| 20260502231548 | 72 | 194 | 3.0 | 10.0 | 0.00 | 0.00 | 0.00 | 60 | 1013.4 |
| 20260502230050 | 70 | 176 | 4.0 | 8.0 | 0.00 | 0.00 | 0.00 | 62 | 1013.7 |
| 20260502224547 | 70 | 188 | 3.0 | 7.0 | 0.00 | 0.00 | 0.00 | 63 | 1013.9 |
| 20260502223047 | 69 | 172 | 4.0 | 11.0 | 0.00 | 0.00 | 0.00 | 62 | 1014.1 |
| 20260502221546 | 70 | 197 | 4.0 | 9.0 | 0.00 | 0.00 | 0.00 | 60 | 1014.3 |
| 20260502220042 | 70 | 269 | 1.0 | 11.0 | 0.00 | 0.00 | 0.00 | 60 | 1014.5 |
| 20260502214549 | 70 | 215 | 3.0 | 11.0 | 0.00 | 0.00 | 0.00 | 61 | 1014.6 |
| 20260502213042 | 69 | 180 | 5.0 | 12.0 | 0.00 | 0.00 | 0.00 | 63 | 1014.8 |
| 20260502211546 | 69 | 203 | 5.0 | 12.0 | 0.00 | 0.00 | 0.00 | 63 | 1014.9 |
| 20260502210047 | 68 | 161 | 6.0 | 11.0 | 0.00 | 0.00 | 0.00 | 63 | 1014.9 |
| 20260502204545 | 69 | 208 | 3.0 | 9.0 | 0.00 | 0.00 | 0.00 | 62 | 1015.1 |
| 20260502203042 | 68 | 254 | 3.0 | 9.0 | 0.00 | 0.00 | 0.00 | 64 | 1015.1 |
| 20260502201541 | 66 | 166 | 4.0 | 10.0 | 0.00 | 0.00 | 0.00 | 65 | 1015.2 |
| 20260502200050 | 66 | 230 | 6.0 | 11.0 | 0.00 | 0.00 | 0.00 | 65 | 1015.5 |
| 20260502194547 | 66 | 266 | 4.0 | 7.0 | 0.00 | 0.00 | 0.00 | 64 | 1015.5 |
| 20260502193044 | 65 | 334 | 2.0 | 10.0 | 0.00 | 0.00 | 0.00 | 67 | 1015.6 |
| 20260502191546 | 65 | 200 | 3.0 | 7.0 | 0.00 | 0.00 | 0.00 | 66 | 1015.9 |
| 20260502190045 | 62 | 353 | 2.0 | 8.0 | 0.00 | 0.00 | 0.00 | 72 | 1016.0 |
| 20260502184602 | 61 | 226 | 5.0 | 9.0 | 0.00 | 0.00 | 0.00 | 71 | 1016.1 |